Weather History for KHBG - August, 2013

Change the Weather History Date:

Friday, August 23, 2013

  Actual Average Record
Temperature  
Mean Temperature 81 °F 81 °F  
Max Temperature 90 °F 92 °F 101 °F (2007)
Min Temperature 72 °F 71 °F 58 °F (1956)
Degree Days  
Heating Degree Days 0 0  
Month to date heating degree days 0 0  
Since 1 June heating degree days 0 0  
Since 1 July heating degree days 0 0  
Cooling Degree Days 16 16  
Month to date cooling degree days 387 386  
Year to date cooling degree days 1667 1746  
Since 1 June cooling degree days 1325 1331  
Growing Degree Days 31 (Base 50)    
Moisture  
Dew Point 72 °F    
Average Humidity 75    
Maximum Humidity 94    
Minimum Humidity 56    
Precipitation  
Precipitation 0.00 in 0.16 in 1.81 in (2011)
Month to date precipitation 3.80 3.49  
Year to date precipitation 51.94 40.92  
Sea Level Pressure  
Sea Level Pressure 30.01 in    
Wind  
Wind Speed 3 mph (East)    
Max Wind Speed 15 mph    
Max Gust Speed -    
Visibility 10 miles    
Events      
T = Trace of Precipitation, MM = Missing Value Source: NWS Daily Summary

Daily Weather History Graph

Daily Weather History Graph

Search for Another Location

Airport or City:

Trip Planner

Search our weather history database for the weather conditions in past years. The results will help you decide how hot, cold, wet, or windy it might be!

Date:

Astronomy

Aug. 23, 2013 Rise Set
Actual Time 6:27 AM CDT 7:30 PM CDT
Civil Twilight 6:02 AM CDT 7:55 PM CDT
Nautical Twilight 5:32 AM CDT 8:25 PM CDT
Astronomical Twilight 5:02 AM CDT 8:56 PM CDT
Moon 9:06 PM CDT (8/23) 9:07 AM CDT (8/23)
Length of Visible Light 13h 53m
Length of Day
13h 03m
Waning Gibbous, 91% of the Moon is Illuminated
Aug 23
Waning Gibbous
Aug 28
Last Quarter
Sep 5
New
Sep 12
First Quarter
Sep 19
Full

Hourly Weather History & Observations

Time (CDT) Temp. Heat Index Dew Point Humidity Pressure Visibility Wind Dir Wind Speed Gust Speed Precip Events Conditions
12:53 AM 77.0 °F - 73.9 °F 90% 30.04 in 10.0 mi Calm Calm - N/A   Clear
1:53 AM 75.0 °F - 73.0 °F 94% 30.02 in 10.0 mi Calm Calm - N/A   Clear
2:53 AM 75.0 °F - 73.0 °F 94% 30.00 in 10.0 mi Calm Calm - N/A   Clear
3:53 AM 73.0 °F - 71.1 °F 93% 29.99 in 10.0 mi Calm Calm - N/A   Clear
4:53 AM 73.0 °F - 71.1 °F 93% 30.00 in 9.0 mi Calm Calm - N/A   Clear
5:53 AM 73.0 °F - 71.1 °F 93% 30.01 in 9.0 mi Calm Calm - N/A   Clear
6:53 AM 73.0 °F - 70.0 °F 90% 30.02 in 10.0 mi Calm Calm - N/A   Clear
7:28 AM 75.2 °F - 71.6 °F 89% 30.04 in 8.0 mi Calm Calm - N/A   Partly Cloudy
7:53 AM 75.9 °F - 73.0 °F 91% 30.04 in 10.0 mi Calm Calm - N/A   Partly Cloudy
8:53 AM 81.0 °F 86.2 °F 73.9 °F 79% 30.04 in 10.0 mi NE 4.6 mph - N/A   Partly Cloudy
9:53 AM 84.0 °F 90.2 °F 73.0 °F 69% 30.05 in 10.0 mi Variable 4.6 mph - N/A   Partly Cloudy
10:53 AM 86.0 °F 92.2 °F 72.0 °F 63% 30.04 in 10.0 mi NE 6.9 mph - N/A   Scattered Clouds
11:53 AM 87.1 °F 94.5 °F 73.0 °F 63% 30.02 in 10.0 mi East 4.6 mph - N/A   Partly Cloudy
12:53 PM 88.0 °F 94.7 °F 72.0 °F 59% 30.01 in 10.0 mi East 9.2 mph - N/A   Partly Cloudy
1:53 PM 89.1 °F 96.0 °F 72.0 °F 57% 29.99 in 10.0 mi East 4.6 mph - N/A   Clear
2:53 PM 89.1 °F 95.0 °F 71.1 °F 55% 29.98 in 10.0 mi ENE 8.1 mph - N/A   Scattered Clouds
3:53 PM 89.1 °F 95.0 °F 71.1 °F 55% 29.98 in 10.0 mi ESE 10.4 mph - N/A   Mostly Cloudy
4:53 PM 89.1 °F 95.0 °F 71.1 °F 55% 29.97 in 10.0 mi ESE 10.4 mph - N/A   Clear
5:53 PM 86.0 °F 92.2 °F 72.0 °F 63% 29.96 in 10.0 mi SE 6.9 mph - N/A   Clear
6:53 PM 84.0 °F 89.6 °F 72.0 °F 67% 29.96 in 10.0 mi ESE 5.8 mph - N/A   Clear
7:53 PM 82.0 °F 87.4 °F 73.0 °F 74% 29.97 in 10.0 mi Calm Calm - N/A   Clear
8:53 PM 78.1 °F - 73.9 °F 87% 30.00 in 10.0 mi Calm Calm - N/A   Clear
9:53 PM 77.0 °F - 73.0 °F 88% 30.01 in 10.0 mi Calm Calm - N/A   Clear
10:53 PM 75.9 °F - 73.0 °F 91% 30.03 in 10.0 mi Calm Calm - N/A   Clear
11:53 PM 75.9 °F - 72.0 °F 87% 30.03 in 10.0 mi Calm Calm - N/A   Clear